Probability
0 0 0 1 2 3 3 2 1 2 2 3 4 6 8 10 11 11 10 10 11 11 12 12 12 11 11 10 9 9 9 9 9 9 9 10 10 9 7 6 6 6 5 4
0 0 0 1 2 3 4 3 3 3 3 4 7 10 11 12 12 11 9 10 13 13 13 12 13 13 13 13 14 16 15 13 11 10 11 11 10 9 8 8 8 6 5 4
0 0 0 1 2 3 4 4 4 5 5 7 12 15 15 13 11 10 10 12 15 15 13 13 16 18 20 23 26 25 22 17 14 14 14 13 11 9 10 10 10 8 7 6
0 0 0 0 1 2 2 2 2 4 6 9 14 16 15 14 11 11 13 16 17 17 17 17 20 24 28 32 36 33 26 19 17 17 17 15 12 10 11 12 12 11 10 10
0 0 0 0 0 1 2 1 1 3 7 12 15 15 14 14 13 13 17 20 21 22 22 22 24 27 30 34 38 37 30 23 21 20 19 17 14 12 12 12 13 13 12 12
0 0 0 0 1 2 2 2 3 5 10 15 17 15 15 15 16 18 20 22 24 25 24 24 26 29 31 34 37 35 30 27 26 24 22 19 16 13 12 13 13 13 13 12
0 0 0 0 2 3 2 2 5 9 13 15 15 14 15 18 20 22 24 25 26 27 27 27 28 31 32 33 33 30 27 26 25 23 22 19 16 13 12 13 14 13 11 10
0 0 0 1 3 3 2 3 7 10 12 12 12 13 16 21 26 27 28 29 30 30 30 29 29 30 32 30 27 25 22 20 18 17 18 17 15 12 12 14 14 13 10 9
1 1 2 3 5 5 5 7 9 11 13 13 12 14 18 23 27 29 29 30 30 29 29 29 29 29 29 27 23 20 18 16 13 12 12 12 12 12 14 15 15 13 11 10
2 3 4 6 7 8 9 11 13 15 18 19 17 18 20 22 24 26 26 26 25 25 25 26 26 26 26 25 21 18 15 12 10 9 8 8 9 10 11 12 12 11 10 10
1 2 5 6 7 10 13 15 18 21 23 23 21 20 20 20 20 21 21 20 20 21 23 23 22 21 22 21 17 15 13 10 8 7 6 7 7 7 6 6 6 6 7 7
0 1 4 5 5 9 13 14 17 20 22 21 19 18 18 17 16 15 16 16 17 19 21 22 19 17 16 16 14 14 13 10 7 6 6 6 5 4 3 3 3 3 4 4
0 1 3 3 4 8 10 11 12 14 15 15 14 14 14 14 14 14 14 16 16 16 19 21 19 16 14 14 13 13 13 10 7 5 4 4 4 3 3 2 2 3 2 1
0 1 2 3 5 8 9 8 9 8 8 8 9 10 13 14 15 15 15 15 14 14 16 18 18 17 15 14 13 12 11 9 6 4 3 3 3 3 3 2 2 2 1 0
0 1 2 4 6 8 8 8 8 7 6 5 6 9 12 14 16 16 15 14 13 13 13 14 15 15 13 11 10 9 7 5 4 4 3 3 3 3 2 2 2 2 1 0
1 2 4 5 7 7 7 7 7 6 6 6 6 8 9 11 14 14 13 13 12 12 11 11 12 12 10 8 6 5 3 2 2 2 3 3 3 3 1 1 1 1 0 0
3 4 5 6 6 6 7 7 7 7 7 7 7 6 7 8 10 11 12 12 12 12 11 9 10 10 8 7 5 3 2 0 0 1 2 2 2 2 1 0 0 0 0 0
2 3 5 5 4 5 6 6 6 7 8 7 7 6 7 8 8 8 9 11 12 13 11 9 8 7 7 5 4 3 2 1 0 1 1 1 1 2 2 1 0 0 0 0
2 2 3 3 3 3 3 4 5 6 7 7 7 7 9 9 7 7 8 9 11 12 11 8 6 5 5 3 2 2 3 2 1 0 0 0 0 1 1 2 1 1 0 0
2 3 3 3 2 1 1 2 3 4 6 7 7 7 8 7 6 6 6 6 7 9 8 6 4 4 4 2 0 1 2 3 2 0 0 0 0 0 1 2 3 2 1 0
3 3 3 2 1 0 0 1 3 4 6 6 6 6 5 4 4 4 4 4 4 4 4 3 3 3 3 2 1 0 1 2 1 0 0 0 0 0 2 3 3 3 2 1
3 3 3 1 0 0 0 2 4 5 6 6 6 5 3 1 2 2 3 3 2 1 2 3 3 3 2 1 1 0 0 0 0 0 0 0 0 0 1 2 2 2 1 0
3 3 2 1 1 1 1 3 5 6 6 6 6 5 3 2 1 1 2 2 1 0 1 2 3 2 1 0 0 0 0 0 0 0 0 0 0 0 0 1 1 1 0 0
3 3 1 1 1 1 1 3 4 4 5 6 6 5 4 3 2 1 1 0 0 0 0 1 1 0 0 0 0 0 0 0 0 0 0 0 0 0 0 0 0 0 0 0
3 2 1 0 1 1 0 1 2 3 4 4 4 4 3 3 2 1 0 0 0 0 0 0 0 0 0 0 0 0 1 1 0 0 0 0 0 0 0 0 0 0 0 0
3 2 1 0 0 0 0 0 1 1 3 3 3 3 3 2 1 1 0 0 0 0 0 0 0 0 0 0 0 1 2 2 1 1 0 0 0 0 0 0 0 0 0 0
3 2 1 0 0 0 0 0 0 1 2 3 3 3 2 1 0 0 0 0 0 0 0 0 0 0 0 0 0 1 2 3 2 2 1 0 0 0 0 0 0 0 0 0
Wind_Speed
4 4 3 3 4 5 5 8 9 8 7 8 6 5 5 4 5 5 6 7 8 8 8 8 8 8 8 7 7 7 7 6 5 5 4 4 3 3 3 3 2 2 2 2
1 2 3 2 4 6 6 5 5 3 6 6 2 2 3 4 6 7 7 7 8 8 8 9 9 9 8 7 7 7 7 6 5 4 4 4 4 3 3 3 2 3 2 2
2 3 1 4 6 6 5 4 7 7 8 3 2 4 6 7 7 8 8 8 8 8 8 8 8 8 9 8 7 8 7 6 6 5 5 4 4 4 4 3 3 2 2 2
2 2 5 9 4 4 5 4 5 5 4 4 5 4 3 4 7 7 6 7 7 7 7 6 6 7 7 8 8 8 7 6 6 6 6 5 5 4 4 3 3 2 2 2
4 3 5 6 2 4 4 4 4 4 3 2 2 3 2 2 4 6 6 6 6 6 6 6 7 8 8 8 8 8 7 6 6 6 6 6 5 4 3 4 3 2 2 2
5 4 6 7 3 1 3 3 2 3 4 4 5 2 5 2 2 3 4 4 5 6 6 7 6 8 9 8 8 8 7 7 6 6 6 6 5 5 3 4 3 3 2 2
5 4 7 6 4 2 5 7 2 3 4 6 5 5 3 2 2 4 4 5 6 7 6 6 6 8 8 8 7 6 6 6 6 6 6 6 5 4 4 4 4 3 3 2
4 4 7 3 1 5 6 3 1 3 4 4 3 1 2 3 3 4 6 6 7 7 6 5 7 8 8 7 6 6 6 7 6 6 5 5 5 4 4 5 5 4 3 2
7 7 4 2 3 3 2 2 2 3 2 3 3 2 3 3 4 4 5 6 6 7 7 5 5 7 8 6 7 7 7 6 6 6 5 5 5 5 4 3 3 3 3 2
2 4 4 3 2 2 1 2 2 2 3 3 3 3 4 4 5 5 5 6 6 8 7 5 4 5 6 6 7 8 7 6 5 6 5 4 3 3 4 3 3 3 3 2
3 4 4 3 2 2 1 1 1 1 1 2 3 3 3 4 5 5 4 4 5 6 7 6 5 4 5 6 7 8 7 6 5 5 5 4 3 2 3 2 3 3 3 3
6 5 3 4 3 1 0 0 0 1 2 2 3 4 4 4 4 4 4 5 6 6 6 5 5 4 5 6 7 8 6 5 4 4 4 4 4 3 5 3 3 3 3 3
5 3 3 4 3 1 0 0 0 2 2 2 2 4 5 4 4 4 5 5 6 6 6 5 5 4 4 5 6 7 6 5 4 4 4 4 4 4 3 3 4 4 3 3
4 2 2 3 2 2 0 1 2 3 2 2 3 3 4 4 4 4 5 5 5 6 5 5 5 5 4 5 6 6 6 6 5 4 4 4 4 4 4 3 2 1 2 2
4 3 4 3 1 1 1 2 3 2 1 2 2 3 4 5 4 4 4 4 5 5 5 5 5 4 4 5 6 7 6 4 4 4 4 4 4 4 3 3 3 2 1 1
2 1 2 2 2 1 0 1 2 2 2 1 1 2 3 4 4 4 4 5 6 6 5 5 5 5 5 6 6 6 5 7 6 5 4 4 4 4 3 3 3 3 3 2
2 2 3 3 3 3 2 2 3 3 2 2 2 2 3 3 3 3 3 3 4 4 4 5 5 5 5 6 6 5 5 6 7 5 4 4 4 4 4 3 3 3 3 3
5 5 5 5 4 3 2 2 3 3 3 2 3 3 4 4 3 3 3 3 3 2 2 3 4 4 5 5 5 4 4 4 5 5 4 4 4 4 4 4 4 4 2 2
2 3 3 3 4 4 3 3 3 3 3 3 3 4 3 3 3 3 3 3 3 3 3 3 5 5 5 6 6 4 5 5 4 4 4 5 4 4 4 4 4 4 3 3
1 2 2 2 2 3 4 3 3 3 3 4 4 3 3 3 3 3 3 3 3 3 3 4 5 5 5 6 6 4 5 6 5 5 4 4 4 4 4 4 4 4 4 4
1 1 2 2 2 2 3 3 4 4 3 5 5 5 4 3 3 3 3 2 2 2 3 4 4 4 4 5 6 4 5 5 5 5 5 5 5 4 4 4 4 4 4 4
1 1 1 2 2 2 2 2 3 4 4 4 4 4 4 3 3 2 2 2 2 3 2 2 3 4 5 6 4 4 5 6 5 5 5 5 5 4 4 4 4 4 4 4
1 1 1 1 2 1 1 1 2 3 4 4 4 4 4 3 3 3 2 2 2 3 2 2 3 6 7 5 4 5 5 6 5 5 5 5 5 5 4 5 4 4 4 4
1 1 1 1 1 2 1 1 0 1 2 3 3 3 3 2 1 1 1 2 4 3 2 3 5 6 6 3 4 5 5 5 5 5 5 4 4 4 4 4 4 4 4 5
1 1 0 1 1 1 1 1 1 1 2 1 1 2 2 2 2 2 2 2 4 4 2 4 6 7 4 3 4 4 4 4 4 5 5 5 4 4 5 5 5 5 4 5
1 1 0 1 1 1 1 1 2 1 2 2 1 1 1 1 2 2 1 2 3 3 3 3 4 5 4 4 4 5 4 4 5 4 5 5 5 5 5 5 6 5 5 5
1 1 1 1 0 1 1 2 2 2 2 3 2 1 1 1 1 1 2 1 2 2 3 3 3 3 4 4 4 4 4 4 4 4 4 4 5 5 5 6 5 4 4 4
Wind_Direction
212 216 187 199 204 185 183 184 183 218 221 246 243 220 203 180 161 156 166 171 172 172 173 169 169 168 168 167 163 161 157 161 173 169 156 146 137 135 130 128 135 128 110 93
275 235 208 213 221 200 206 194 204 208 247 250 236 155 161 170 169 173 179 181 178 174 170 170 173 170 165 163 160 154 156 161 164 154 149 148 145 138 128 123 119 109 108 106
233 280 45 242 220 197 201 195 176 201 229 198 171 186 192 188 186 190 188 181 179 179 177 174 173 168 165 161 153 154 159 158 159 156 154 154 149 138 139 139 127 120 122 119
147 100 216 236 227 189 188 216 205 210 212 191 200 199 197 188 184 193 189 179 179 173 165 163 160 155 152 147 151 156 161 161 157 156 156 150 144 146 146 138 137 142 136 136
135 177 261 287 246 180 184 244 220 204 206 156 120 61 342 224 193 194 186 177 173 164 154 147 149 150 143 146 149 152 158 160 158 156 155 154 154 155 147 137 134 135 130 128
136 161 220 241 264 247 123 260 272 177 173 152 123 143 250 237 178 162 151 150 145 140 136 141 148 145 143 150 150 158 161 158 153 152 155 155 156 148 138 139 141 130 106 90
158 193 248 256 281 104 163 231 256 175 171 166 182 206 211 160 148 141 140 135 133 132 134 140 138 136 140 144 154 156 146 139 137 140 142 143 140 133 132 131 125 117 104 75
152 178 241 280 107 165 214 242 224 192 179 175 187 156 133 142 147 139 133 132 134 129 128 132 135 136 140 149 150 137 135 133 133 134 134 134 131 127 130 134 130 125 114 91
186 207 240 260 221 238 208 221 225 190 190 157 156 161 149 151 146 145 140 141 139 131 125 124 134 145 148 153 144 135 131 134 135 129 124 131 136 135 130 134 140 143 147 148
248 268 269 271 271 290 246 238 227 178 164 154 168 173 159 153 147 147 142 143 136 130 132 134 135 140 144 144 146 139 138 137 134 129 124 119 121 134 141 147 150 155 161 164
264 279 309 308 299 303 333 31 49 29 102 151 147 162 161 152 147 145 138 137 139 141 142 144 140 133 135 143 146 140 142 140 137 135 133 122 112 119 143 150 169 170 176 173
226 236 223 263 289 305 6 340 79 69 49 70 139 154 147 143 139 138 139 135 136 138 139 142 141 142 142 146 146 142 143 145 145 143 139 134 128 97 62 90 114 130 149 159
235 250 235 258 289 298 207 271 96 96 123 113 111 136 136 137 141 141 142 143 148 148 147 148 146 148 153 152 147 148 149 153 152 150 148 142 143 143 121 64 72 87 110 126
241 229 258 261 265 291 290 64 74 75 80 105 109 113 120 123 135 148 159 157 151 144 144 146 150 157 158 150 149 147 145 154 153 152 153 152 152 154 150 148 141 74 49 88
257 223 220 229 248 333 10 90 97 94 85 75 96 124 138 144 154 164 157 146 141 142 146 148 155 164 158 153 152 149 147 151 150 147 148 149 147 148 153 158 159 150 117 85
245 209 191 186 195 208 163 129 146 170 159 146 143 148 161 153 146 143 146 149 151 164 169 165 172 173 161 156 153 151 153 155 151 148 148 148 151 158 163 166 168 171 183 182
188 206 196 198 210 210 202 197 182 178 163 164 185 157 136 125 123 135 150 159 165 176 176 174 178 170 162 159 157 156 155 157 153 150 156 163 168 173 172 173 180 191 200 194
215 212 201 188 192 198 197 186 170 164 171 182 159 141 140 146 164 181 181 170 155 161 185 179 167 160 160 157 155 155 158 160 163 165 168 172 175 175 175 180 186 192 188 173
198 195 196 196 198 192 198 198 192 183 174 166 159 166 161 157 173 179 167 162 172 198 217 195 175 164 167 168 158 159 163 164 165 165 167 166 168 173 179 185 186 187 181 173
205 186 187 212 217 201 201 199 186 179 177 157 152 158 153 168 179 170 156 166 203 210 193 180 174 172 175 174 168 170 171 169 169 168 169 172 176 180 185 186 186 187 186 184
247 216 206 214 241 240 215 192 173 180 179 159 160 174 179 186 182 169 160 188 232 193 174 173 178 180 175 170 169 171 170 169 171 173 177 179 180 183 185 185 187 187 186 186
297 247 232 224 222 236 230 190 167 164 163 163 164 165 163 173 178 172 186 199 201 175 167 178 181 174 168 164 168 168 170 171 171 175 179 180 180 183 184 186 189 186 185 186
303 255 228 226 212 198 169 171 166 161 165 170 173 174 178 185 179 169 197 213 173 170 171 185 176 168 168 166 167 170 171 172 174 176 178 179 180 182 183 186 190 187 185 185
321 324 236 198 148 129 145 241 185 164 160 160 174 175 166 160 183 221 199 180 174 172 179 178 174 174 172 174 168 170 173 175 175 176 176 177 179 180 181 181 184 185 185 184
310 324 57 103 119 176 186 151 100 100 124 131 144 161 168 169 177 190 185 189 182 177 181 184 181 180 180 176 174 173 175 177 176 174 177 179 181 183 185 183 181 181 183 187
320 316 248 201 200 198 185 159 150 162 153 141 149 154 142 140 147 150 160 185 188 184 184 183 182 182 180 173 173 174 174 173 175 181 184 183 185 185 185 185 185 188 190 192
339 2 51 43 18 176 176 163 160 173 170 163 166 163 150 145 141 153 167 174 175 178 177 177 176 174 171 169 168 170 174 176 179 183 184 187 189 190 189 187 188 189 190 191